owner,sensor,date,latitude,longitude,vertical_datum,sea_water_practical_salinity,qcFlag 
LUMCON,ioos:station:LUMCON:102:1,2015-11-01T05:00:00Z,29.1870,-90.6093,2.42,14.61,1111122 
LUMCON,ioos:station:LUMCON:102:1,2015-11-01T05:15:00Z,29.1870,-90.6093,2.45,14.89,1111122 
LUMCON,ioos:station:LUMCON:102:1,2015-11-01T05:30:00Z,29.1870,-90.6093,2.44,14.86,1111122 
LUMCON,ioos:station:LUMCON:102:1,2015-11-01T05:45:00Z,29.1870,-90.6093,2.47,14.56,1111122 
LUMCON,ioos:station:LUMCON:102:1,2015-11-01T06:00:00Z,29.1870,-90.6093,2.47,15.12,1111122 
LUMCON,ioos:station:LUMCON:102:1,2015-11-01T06:15:00Z,29.1870,-90.6093,2.46,14.64,1111122 
LUMCON,ioos:station:LUMCON:102:1,2015-11-01T06:30:00Z,29.1870,-90.6093,2.46,14.93,1111122 
LUMCON,ioos:station:LUMCON:102:1,2015-11-01T06:45:00Z,29.1870,-90.6093,2.49,15.02,1111122 
LUMCON,ioos:station:LUMCON:102:1,2015-11-01T07:00:00Z,29.1870,-90.6093,2.48,15.3,1111122 
LUMCON,ioos:station:LUMCON:102:1,2015-11-01T07:15:00Z,29.1870,-90.6093,2.48,15.3,1111122 
LUMCON,ioos:station:LUMCON:102:1,2015-11-01T07:30:00Z,29.1870,-90.6093,2.48,15.52,1111122 
LUMCON,ioos:station:LUMCON:102:1,2015-11-01T07:45:00Z,29.1870,-90.6093,2.47,15.79,1111122 
LUMCON,ioos:station:LUMCON:102:1,2015-11-01T08:00:00Z,29.1870,-90.6093,2.47,15.28,1111122 
LUMCON,ioos:station:LUMCON:102:1,2015-11-01T08:15:00Z,29.1870,-90.6093,2.43,15.37,1111122 
LUMCON,ioos:station:LUMCON:102:1,2015-11-01T08:30:00Z,29.1870,-90.6093,2.4,15.52,1111122 
LUMCON,ioos:station:LUMCON:102:1,2015-11-01T08:45:00Z,29.1870,-90.6093,2.4,15.24,1111122 
LUMCON,ioos:station:LUMCON:102:1,2015-11-01T09:00:00Z,29.1870,-90.6093,2.4,15.37,1111122 
LUMCON,ioos:station:LUMCON:102:1,2015-11-01T09:15:00Z,29.1870,-90.6093,2.42,14.9,1111122 
LUMCON,ioos:station:LUMCON:102:1,2015-11-01T09:30:00Z,29.1870,-90.6093,2.39,14.67,1111122 
LUMCON,ioos:station:LUMCON:102:1,2015-11-01T09:45:00Z,29.1870,-90.6093,2.41,14.87,1111122 
LUMCON,ioos:station:LUMCON:102:1,2015-11-01T10:00:00Z,29.1870,-90.6093,2.41,14.81,1111122 
LUMCON,ioos:station:LUMCON:102:1,2015-11-01T10:15:00Z,29.1870,-90.6093,2.44,14.5,1111122 
LUMCON,ioos:station:LUMCON:102:1,2015-11-01T10:30:00Z,29.1870,-90.6093,2.41,15.02,1111122 
LUMCON,ioos:station:LUMCON:102:1,2015-11-01T10:45:00Z,29.1870,-90.6093,2.39,15.07,1111122 
LUMCON,ioos:station:LUMCON:102:1,2015-11-01T11:00:00Z,29.1870,-90.6093,2.4,15.77,1111122 
LUMCON,ioos:station:LUMCON:102:1,2015-11-01T11:15:00Z,29.1870,-90.6093,2.38,15.84,1111122 
LUMCON,ioos:station:LUMCON:102:1,2015-11-01T11:30:00Z,29.1870,-90.6093,2.38,15.68,1111122 
LUMCON,ioos:station:LUMCON:102:1,2015-11-01T11:45:00Z,29.1870,-90.6093,2.36,14.6,1111122 
LUMCON,ioos:station:LUMCON:102:1,2015-11-01T12:00:00Z,29.1870,-90.6093,2.37,15.02,1111122 
LUMCON,ioos:station:LUMCON:102:1,2015-11-01T12:15:00Z,29.1870,-90.6093,2.32,14.98,1111122 
LUMCON,ioos:station:LUMCON:102:1,2015-11-01T12:30:00Z,29.1870,-90.6093,2.32,14.27,1111122 
LUMCON,ioos:station:LUMCON:102:1,2015-11-01T12:45:00Z,29.1870,-90.6093,2.3,14.01,1111122 
LUMCON,ioos:station:LUMCON:102:1,2015-11-01T13:00:00Z,29.1870,-90.6093,2.27,13.85,1111122 
LUMCON,ioos:station:LUMCON:102:1,2015-11-01T13:15:00Z,29.1870,-90.6093,2.27,13.54,1111122 
LUMCON,ioos:station:LUMCON:102:1,2015-11-01T13:30:00Z,29.1870,-90.6093,2.24,13.51,1111122 
LUMCON,ioos:station:LUMCON:102:1,2015-11-01T13:45:00Z,29.1870,-90.6093,2.24,14.37,1111122 
LUMCON,ioos:station:LUMCON:102:1,2015-11-01T14:00:00Z,29.1870,-90.6093,2.23,14.35,1111122 
LUMCON,ioos:station:LUMCON:102:1,2015-11-01T14:15:00Z,29.1870,-90.6093,2.23,13.96,1111122 
LUMCON,ioos:station:LUMCON:102:1,2015-11-01T14:30:00Z,29.1870,-90.6093,2.22,13.52,1111122 
LUMCON,ioos:station:LUMCON:102:1,2015-11-01T14:45:00Z,29.1870,-90.6093,2.2,13.01,1111122 
LUMCON,ioos:station:LUMCON:102:1,2015-11-01T15:00:00Z,29.1870,-90.6093,2.19,13.26,1111122 
LUMCON,ioos:station:LUMCON:102:1,2015-11-01T15:15:00Z,29.1870,-90.6093,2.2,13.24,1111122 
LUMCON,ioos:station:LUMCON:102:1,2015-11-01T15:30:00Z,29.1870,-90.6093,2.19,14.09,1111122 
LUMCON,ioos:station:LUMCON:102:1,2015-11-01T15:45:00Z,29.1870,-90.6093,2.2,13.7,1111122 
LUMCON,ioos:station:LUMCON:102:1,2015-11-01T16:00:00Z,29.1870,-90.6093,2.19,13.54,1111122 
LUMCON,ioos:station:LUMCON:102:1,2015-11-01T16:15:00Z,29.1870,-90.6093,2.2,13.33,1111122 
LUMCON,ioos:station:LUMCON:102:1,2015-11-01T16:30:00Z,29.1870,-90.6093,2.22,13.74,1111122 
LUMCON,ioos:station:LUMCON:102:1,2015-11-01T16:45:00Z,29.1870,-90.6093,2.2,13.91,1111122 
LUMCON,ioos:station:LUMCON:102:1,2015-11-01T17:00:00Z,29.1870,-90.6093,2.21,13.46,1111122 
LUMCON,ioos:station:LUMCON:102:1,2015-11-01T17:15:00Z,29.1870,-90.6093,2.2,14.57,1111122 
LUMCON,ioos:station:LUMCON:102:1,2015-11-01T17:30:00Z,29.1870,-90.6093,2.2,14.13,1111122 
LUMCON,ioos:station:LUMCON:102:1,2015-11-01T17:45:00Z,29.1870,-90.6093,2.22,13.63,1111122 
LUMCON,ioos:station:LUMCON:102:1,2015-11-01T18:00:00Z,29.1870,-90.6093,2.2,13.44,1111122 
LUMCON,ioos:station:LUMCON:102:1,2015-11-01T18:15:00Z,29.1870,-90.6093,2.19,13.33,1111122 
LUMCON,ioos:station:LUMCON:102:1,2015-11-01T18:30:00Z,29.1870,-90.6093,2.18,13.98,1111122 
LUMCON,ioos:station:LUMCON:102:1,2015-11-01T18:45:00Z,29.1870,-90.6093,2.19,13.7,1111122 
LUMCON,ioos:station:LUMCON:102:1,2015-11-01T19:00:00Z,29.1870,-90.6093,2.2,14.02,1111122 
LUMCON,ioos:station:LUMCON:102:1,2015-11-01T19:15:00Z,29.1870,-90.6093,2.24,14.57,1111122 
LUMCON,ioos:station:LUMCON:102:1,2015-11-01T19:30:00Z,29.1870,-90.6093,2.21,13.85,1111122 
LUMCON,ioos:station:LUMCON:102:1,2015-11-01T19:45:00Z,29.1870,-90.6093,2.25,14.05,1111122 
LUMCON,ioos:station:LUMCON:102:1,2015-11-01T20:00:00Z,29.1870,-90.6093,2.26,14.24,1111122 
LUMCON,ioos:station:LUMCON:102:1,2015-11-01T20:15:00Z,29.1870,-90.6093,2.28,14.18,1111122 
LUMCON,ioos:station:LUMCON:102:1,2015-11-01T20:30:00Z,29.1870,-90.6093,2.29,14.01,1111122 
LUMCON,ioos:station:LUMCON:102:1,2015-11-01T20:45:00Z,29.1870,-90.6093,2.29,14.15,1111122 
LUMCON,ioos:station:LUMCON:102:1,2015-11-01T21:00:00Z,29.1870,-90.6093,2.29,14.19,1111122 
LUMCON,ioos:station:LUMCON:102:1,2015-11-01T21:15:00Z,29.1870,-90.6093,2.34,14.28,1111122 
LUMCON,ioos:station:LUMCON:102:1,2015-11-01T21:30:00Z,29.1870,-90.6093,2.33,14.12,1111122 
LUMCON,ioos:station:LUMCON:102:1,2015-11-01T21:45:00Z,29.1870,-90.6093,2.32,14.34,1111122 
LUMCON,ioos:station:LUMCON:102:1,2015-11-01T22:00:00Z,29.1870,-90.6093,2.36,14.41,1111122 
LUMCON,ioos:station:LUMCON:102:1,2015-11-01T22:15:00Z,29.1870,-90.6093,2.36,14.4,1111122 
LUMCON,ioos:station:LUMCON:102:1,2015-11-01T22:30:00Z,29.1870,-90.6093,2.36,14.48,1111122 
LUMCON,ioos:station:LUMCON:102:1,2015-11-01T22:45:00Z,29.1870,-90.6093,2.35,14.25,1111122 
LUMCON,ioos:station:LUMCON:102:1,2015-11-01T23:00:00Z,29.1870,-90.6093,2.39,14.35,1111122 
LUMCON,ioos:station:LUMCON:102:1,2015-11-01T23:15:00Z,29.1870,-90.6093,2.39,14.55,1111122 
LUMCON,ioos:station:LUMCON:102:1,2015-11-01T23:30:00Z,29.1870,-90.6093,2.41,14.89,1111122 
LUMCON,ioos:station:LUMCON:102:1,2015-11-01T23:45:00Z,29.1870,-90.6093,2.43,14.13,1111122 
LUMCON,ioos:station:LUMCON:102:1,2015-11-02T05:00:00Z,29.1870,-90.6093,2.61,16.02,1111122 
LUMCON,ioos:station:LUMCON:102:1,2015-11-02T05:15:00Z,29.1870,-90.6093,2.61,16.16,1111122 
LUMCON,ioos:station:LUMCON:102:1,2015-11-02T05:30:00Z,29.1870,-90.6093,2.62,16.15,1111122 
LUMCON,ioos:station:LUMCON:102:1,2015-11-02T05:45:00Z,29.1870,-90.6093,2.65,16.28,1111122 
LUMCON,ioos:station:LUMCON:102:1,2015-11-02T06:00:00Z,29.1870,-90.6093,2.61,16.96,1111122 
LUMCON,ioos:station:LUMCON:102:1,2015-11-02T06:15:00Z,29.1870,-90.6093,2.64,16.38,1111122 
LUMCON,ioos:station:LUMCON:102:1,2015-11-02T06:30:00Z,29.1870,-90.6093,2.63,16.36,1111122 
LUMCON,ioos:station:LUMCON:102:1,2015-11-02T06:45:00Z,29.1870,-90.6093,2.64,16.36,1111122 
LUMCON,ioos:station:LUMCON:102:1,2015-11-02T07:00:00Z,29.1870,-90.6093,2.62,16.29,1111122 
LUMCON,ioos:station:LUMCON:102:1,2015-11-02T07:15:00Z,29.1870,-90.6093,2.64,16.6,1111122 
LUMCON,ioos:station:LUMCON:102:1,2015-11-02T07:30:00Z,29.1870,-90.6093,2.61,16.64,1111122 
LUMCON,ioos:station:LUMCON:102:1,2015-11-02T07:45:00Z,29.1870,-90.6093,2.62,16.61,1111122 
LUMCON,ioos:station:LUMCON:102:1,2015-11-02T08:00:00Z,29.1870,-90.6093,2.62,17.09,1111122 
LUMCON,ioos:station:LUMCON:102:1,2015-11-02T08:15:00Z,29.1870,-90.6093,2.6,17.18,1111122 
LUMCON,ioos:station:LUMCON:102:1,2015-11-02T08:30:00Z,29.1870,-90.6093,2.59,17.66,1111122 
LUMCON,ioos:station:LUMCON:102:1,2015-11-02T08:45:00Z,29.1870,-90.6093,2.57,16.99,1111122 
LUMCON,ioos:station:LUMCON:102:1,2015-11-02T09:00:00Z,29.1870,-90.6093,2.56,17.19,1111122 
LUMCON,ioos:station:LUMCON:102:1,2015-11-02T09:15:00Z,29.1870,-90.6093,2.54,17.12,1111122 
LUMCON,ioos:station:LUMCON:102:1,2015-11-02T09:30:00Z,29.1870,-90.6093,2.53,17.25,1111122 
LUMCON,ioos:station:LUMCON:102:1,2015-11-02T09:45:00Z,29.1870,-90.6093,2.51,17.13,1111122 
LUMCON,ioos:station:LUMCON:102:1,2015-11-02T10:00:00Z,29.1870,-90.6093,2.5,17.2,1111122 
LUMCON,ioos:station:LUMCON:102:1,2015-11-02T10:15:00Z,29.1870,-90.6093,2.49,16.85,1111122 
LUMCON,ioos:station:LUMCON:102:1,2015-11-02T10:30:00Z,29.1870,-90.6093,2.46,16.64,1111122 
LUMCON,ioos:station:LUMCON:102:1,2015-11-02T10:45:00Z,29.1870,-90.6093,2.46,16.67,1111122 
LUMCON,ioos:station:LUMCON:102:1,2015-11-02T11:00:00Z,29.1870,-90.6093,2.44,16.85,1111122 
LUMCON,ioos:station:LUMCON:102:1,2015-11-02T11:15:00Z,29.1870,-90.6093,2.44,16.51,1111122 
LUMCON,ioos:station:LUMCON:102:1,2015-11-02T11:30:00Z,29.1870,-90.6093,2.42,16.43,1111122 
LUMCON,ioos:station:LUMCON:102:1,2015-11-02T11:45:00Z,29.1870,-90.6093,2.4,16.98,1111122 
LUMCON,ioos:station:LUMCON:102:1,2015-11-02T12:00:00Z,29.1870,-90.6093,2.38,16.87,1111122 
LUMCON,ioos:station:LUMCON:102:1,2015-11-02T12:15:00Z,29.1870,-90.6093,2.37,16.46,1111122 
LUMCON,ioos:station:LUMCON:102:1,2015-11-02T12:30:00Z,29.1870,-90.6093,2.36,16.43,1111122 
LUMCON,ioos:station:LUMCON:102:1,2015-11-02T12:45:00Z,29.1870,-90.6093,2.34,16.54,1111122 
LUMCON,ioos:station:LUMCON:102:1,2015-11-02T13:00:00Z,29.1870,-90.6093,2.33,15.83,1111122 
LUMCON,ioos:station:LUMCON:102:1,2015-11-02T13:15:00Z,29.1870,-90.6093,2.32,14.83,1111122 
LUMCON,ioos:station:LUMCON:102:1,2015-11-02T13:30:00Z,29.1870,-90.6093,2.29,15.85,1111122 
LUMCON,ioos:station:LUMCON:102:1,2015-11-02T13:45:00Z,29.1870,-90.6093,2.26,16.07,1111122 
LUMCON,ioos:station:LUMCON:102:1,2015-11-02T14:00:00Z,29.1870,-90.6093,2.27,15.99,1111122 
LUMCON,ioos:station:LUMCON:102:1,2015-11-02T14:15:00Z,29.1870,-90.6093,2.25,15.51,1111122 
LUMCON,ioos:station:LUMCON:102:1,2015-11-02T14:30:00Z,29.1870,-90.6093,2.23,15.94,1111122 
LUMCON,ioos:station:LUMCON:102:1,2015-11-02T14:45:00Z,29.1870,-90.6093,2.23,15.29,1111122 
LUMCON,ioos:station:LUMCON:102:1,2015-11-02T15:00:00Z,29.1870,-90.6093,2.21,15.27,1111122 
LUMCON,ioos:station:LUMCON:102:1,2015-11-02T15:15:00Z,29.1870,-90.6093,2.21,15.03,1111122 
LUMCON,ioos:station:LUMCON:102:1,2015-11-02T15:30:00Z,29.1870,-90.6093,2.2,15.51,1111122 
LUMCON,ioos:station:LUMCON:102:1,2015-11-02T15:45:00Z,29.1870,-90.6093,2.18,15.27,1111122 
LUMCON,ioos:station:LUMCON:102:1,2015-11-02T16:00:00Z,29.1870,-90.6093,2.17,15.7,1111122 
LUMCON,ioos:station:LUMCON:102:1,2015-11-02T16:15:00Z,29.1870,-90.6093,2.17,16.26,1111122 
LUMCON,ioos:station:LUMCON:102:1,2015-11-02T16:30:00Z,29.1870,-90.6093,2.16,15.26,1111122 
LUMCON,ioos:station:LUMCON:102:1,2015-11-02T16:45:00Z,29.1870,-90.6093,2.17,16.23,1111122 
LUMCON,ioos:station:LUMCON:102:1,2015-11-02T17:00:00Z,29.1870,-90.6093,2.16,16.55,1111122 
LUMCON,ioos:station:LUMCON:102:1,2015-11-02T17:15:00Z,29.1870,-90.6093,2.14,17.39,1111122 
LUMCON,ioos:station:LUMCON:102:1,2015-11-02T17:30:00Z,29.1870,-90.6093,2.11,18.16,1111122 
LUMCON,ioos:station:LUMCON:102:1,2015-11-02T17:45:00Z,29.1870,-90.6093,2.08,18.21,1111122 
LUMCON,ioos:station:LUMCON:102:1,2015-11-02T18:00:00Z,29.1870,-90.6093,2.06,18.28,1111122 
LUMCON,ioos:station:LUMCON:102:1,2015-11-02T18:15:00Z,29.1870,-90.6093,2.03,18.81,1111122 
LUMCON,ioos:station:LUMCON:102:1,2015-11-02T18:30:00Z,29.1870,-90.6093,2.01,18.82,1111122 
LUMCON,ioos:station:LUMCON:102:1,2015-11-02T18:45:00Z,29.1870,-90.6093,2.01,18.63,1111122 
LUMCON,ioos:station:LUMCON:102:1,2015-11-02T19:00:00Z,29.1870,-90.6093,2.01,18.69,1111122 
LUMCON,ioos:station:LUMCON:102:1,2015-11-02T19:15:00Z,29.1870,-90.6093,2.0,19.29,1111122 
LUMCON,ioos:station:LUMCON:102:1,2015-11-02T19:30:00Z,29.1870,-90.6093,2.01,19.13,1111122 
LUMCON,ioos:station:LUMCON:102:1,2015-11-02T19:45:00Z,29.1870,-90.6093,2.03,19.34,1111122 
LUMCON,ioos:station:LUMCON:102:1,2015-11-02T20:00:00Z,29.1870,-90.6093,2.03,19.52,1111122 
LUMCON,ioos:station:LUMCON:102:1,2015-11-02T20:15:00Z,29.1870,-90.6093,2.06,19.3,1111122 
LUMCON,ioos:station:LUMCON:102:1,2015-11-02T20:30:00Z,29.1870,-90.6093,2.07,19.21,1111122 
LUMCON,ioos:station:LUMCON:102:1,2015-11-02T20:45:00Z,29.1870,-90.6093,2.08,19.17,1111122 
LUMCON,ioos:station:LUMCON:102:1,2015-11-02T21:00:00Z,29.1870,-90.6093,2.09,19.1,1111122 
LUMCON,ioos:station:LUMCON:102:1,2015-11-02T21:15:00Z,29.1870,-90.6093,2.09,19.06,1111122 
LUMCON,ioos:station:LUMCON:102:1,2015-11-02T21:30:00Z,29.1870,-90.6093,2.11,18.02,1111122 
LUMCON,ioos:station:LUMCON:102:1,2015-11-02T21:45:00Z,29.1870,-90.6093,2.13,16.4,1111122 
LUMCON,ioos:station:LUMCON:102:1,2015-11-02T22:00:00Z,29.1870,-90.6093,2.13,15.67,1111122 
LUMCON,ioos:station:LUMCON:102:1,2015-11-02T22:15:00Z,29.1870,-90.6093,2.14,15.93,1111122 
LUMCON,ioos:station:LUMCON:102:1,2015-11-02T22:30:00Z,29.1870,-90.6093,2.14,15.03,1111122 
LUMCON,ioos:station:LUMCON:102:1,2015-11-02T22:45:00Z,29.1870,-90.6093,2.14,15.73,1111122 
LUMCON,ioos:station:LUMCON:102:1,2015-11-02T23:00:00Z,29.1870,-90.6093,2.15,16.08,1111122 
LUMCON,ioos:station:LUMCON:102:1,2015-11-02T23:15:00Z,29.1870,-90.6093,2.15,16.27,1111122 
LUMCON,ioos:station:LUMCON:102:1,2015-11-02T23:30:00Z,29.1870,-90.6093,2.17,15.5,1111122 
LUMCON,ioos:station:LUMCON:102:1,2015-11-02T23:45:00Z,29.1870,-90.6093,2.18,15.23,1111122 
LUMCON,ioos:station:LUMCON:102:1,2015-11-03T05:00:00Z,29.1870,-90.6093,2.36,18.18,1111122 
LUMCON,ioos:station:LUMCON:102:1,2015-11-03T05:15:00Z,29.1870,-90.6093,2.36,18.21,1111122 
LUMCON,ioos:station:LUMCON:102:1,2015-11-03T05:30:00Z,29.1870,-90.6093,2.36,18.07,1111122 
LUMCON,ioos:station:LUMCON:102:1,2015-11-03T05:45:00Z,29.1870,-90.6093,2.37,17.86,1111122 
LUMCON,ioos:station:LUMCON:102:1,2015-11-03T06:00:00Z,29.1870,-90.6093,2.36,17.45,1111122 
LUMCON,ioos:station:LUMCON:102:1,2015-11-03T06:15:00Z,29.1870,-90.6093,2.36,17.46,1111122 
LUMCON,ioos:station:LUMCON:102:1,2015-11-03T06:30:00Z,29.1870,-90.6093,2.36,17.11,1111122 
LUMCON,ioos:station:LUMCON:102:1,2015-11-03T06:45:00Z,29.1870,-90.6093,2.36,17.62,1111122 
LUMCON,ioos:station:LUMCON:102:1,2015-11-03T07:00:00Z,29.1870,-90.6093,2.36,17.66,1111122 
LUMCON,ioos:station:LUMCON:102:1,2015-11-03T07:15:00Z,29.1870,-90.6093,2.36,17.3,1111122 
LUMCON,ioos:station:LUMCON:102:1,2015-11-03T07:30:00Z,29.1870,-90.6093,2.37,17.36,1111122 
LUMCON,ioos:station:LUMCON:102:1,2015-11-03T07:45:00Z,29.1870,-90.6093,2.35,17.49,1111122 
LUMCON,ioos:station:LUMCON:102:1,2015-11-03T08:00:00Z,29.1870,-90.6093,2.35,17.42,1111122 
LUMCON,ioos:station:LUMCON:102:1,2015-11-03T08:15:00Z,29.1870,-90.6093,2.35,17.1,1111122 
LUMCON,ioos:station:LUMCON:102:1,2015-11-03T08:30:00Z,29.1870,-90.6093,2.35,16.92,1111122 
LUMCON,ioos:station:LUMCON:102:1,2015-11-03T08:45:00Z,29.1870,-90.6093,2.35,17.76,1111122 
LUMCON,ioos:station:LUMCON:102:1,2015-11-03T09:00:00Z,29.1870,-90.6093,2.34,17.6,1111122 
LUMCON,ioos:station:LUMCON:102:1,2015-11-03T09:15:00Z,29.1870,-90.6093,2.34,17.19,1111122 
LUMCON,ioos:station:LUMCON:102:1,2015-11-03T09:30:00Z,29.1870,-90.6093,2.33,16.84,1111122 
LUMCON,ioos:station:LUMCON:102:1,2015-11-03T09:45:00Z,29.1870,-90.6093,2.32,17.39,1111122 
LUMCON,ioos:station:LUMCON:102:1,2015-11-03T10:00:00Z,29.1870,-90.6093,2.32,17.69,1111122 
LUMCON,ioos:station:LUMCON:102:1,2015-11-03T10:15:00Z,29.1870,-90.6093,2.32,17.33,1111122 
LUMCON,ioos:station:LUMCON:102:1,2015-11-03T10:30:00Z,29.1870,-90.6093,2.31,17.43,1111122 
LUMCON,ioos:station:LUMCON:102:1,2015-11-03T10:45:00Z,29.1870,-90.6093,2.3,17.79,1111122 
LUMCON,ioos:station:LUMCON:102:1,2015-11-03T11:00:00Z,29.1870,-90.6093,2.3,17.47,1111122 
LUMCON,ioos:station:LUMCON:102:1,2015-11-03T11:15:00Z,29.1870,-90.6093,2.29,18.08,1111122 
LUMCON,ioos:station:LUMCON:102:1,2015-11-03T11:30:00Z,29.1870,-90.6093,2.29,18.2,1111122 
LUMCON,ioos:station:LUMCON:102:1,2015-11-03T11:45:00Z,29.1870,-90.6093,2.27,18.04,1111122 
LUMCON,ioos:station:LUMCON:102:1,2015-11-03T12:00:00Z,29.1870,-90.6093,2.27,17.23,1111122 
LUMCON,ioos:station:LUMCON:102:1,2015-11-03T12:15:00Z,29.1870,-90.6093,2.27,15.7,1111122 
LUMCON,ioos:station:LUMCON:102:1,2015-11-03T12:30:00Z,29.1870,-90.6093,2.26,15.56,1111122 
LUMCON,ioos:station:LUMCON:102:1,2015-11-03T12:45:00Z,29.1870,-90.6093,2.25,15.01,1111122 
LUMCON,ioos:station:LUMCON:102:1,2015-11-03T13:00:00Z,29.1870,-90.6093,2.24,16.22,1111122 
LUMCON,ioos:station:LUMCON:102:1,2015-11-03T13:15:00Z,29.1870,-90.6093,2.23,15.94,1111122 
LUMCON,ioos:station:LUMCON:102:1,2015-11-03T13:30:00Z,29.1870,-90.6093,2.24,15.38,1111122 
LUMCON,ioos:station:LUMCON:102:1,2015-11-03T13:45:00Z,29.1870,-90.6093,2.23,15.52,1111122 
LUMCON,ioos:station:LUMCON:102:1,2015-11-03T14:00:00Z,29.1870,-90.6093,2.22,15.22,1111122 
LUMCON,ioos:station:LUMCON:102:1,2015-11-03T14:15:00Z,29.1870,-90.6093,2.21,15.51,1111122 
LUMCON,ioos:station:LUMCON:102:1,2015-11-03T14:30:00Z,29.1870,-90.6093,2.2,14.89,1111122 
LUMCON,ioos:station:LUMCON:102:1,2015-11-03T14:45:00Z,29.1870,-90.6093,2.2,14.78,1111122 
LUMCON,ioos:station:LUMCON:102:1,2015-11-03T15:00:00Z,29.1870,-90.6093,2.2,14.92,1111122 
LUMCON,ioos:station:LUMCON:102:1,2015-11-03T15:15:00Z,29.1870,-90.6093,2.19,14.64,1111122 
LUMCON,ioos:station:LUMCON:102:1,2015-11-03T15:30:00Z,29.1870,-90.6093,2.18,14.86,1111122 
LUMCON,ioos:station:LUMCON:102:1,2015-11-03T15:45:00Z,29.1870,-90.6093,2.18,14.31,1111122 
LUMCON,ioos:station:LUMCON:102:1,2015-11-03T16:00:00Z,29.1870,-90.6093,2.17,14.48,1111122 
LUMCON,ioos:station:LUMCON:102:1,2015-11-03T16:15:00Z,29.1870,-90.6093,2.17,14.41,1111122 
LUMCON,ioos:station:LUMCON:102:1,2015-11-03T16:30:00Z,29.1870,-90.6093,2.17,14.59,1111122 
LUMCON,ioos:station:LUMCON:102:1,2015-11-03T16:45:00Z,29.1870,-90.6093,2.17,14.67,1111122 
LUMCON,ioos:station:LUMCON:102:1,2015-11-03T17:00:00Z,29.1870,-90.6093,2.16,14.67,1111122 
LUMCON,ioos:station:LUMCON:102:1,2015-11-03T17:15:00Z,29.1870,-90.6093,2.16,14.53,1111122 
LUMCON,ioos:station:LUMCON:102:1,2015-11-03T17:30:00Z,29.1870,-90.6093,2.16,14.33,1111122 
LUMCON,ioos:station:LUMCON:102:1,2015-11-03T17:45:00Z,29.1870,-90.6093,2.16,14.8,1111122 
LUMCON,ioos:station:LUMCON:102:1,2015-11-03T18:00:00Z,29.1870,-90.6093,2.15,13.64,1111122 
LUMCON,ioos:station:LUMCON:102:1,2015-11-03T18:15:00Z,29.1870,-90.6093,2.15,13.73,1111122 
LUMCON,ioos:station:LUMCON:102:1,2015-11-03T18:30:00Z,29.1870,-90.6093,2.15,14.09,1111122 
LUMCON,ioos:station:LUMCON:102:1,2015-11-03T18:45:00Z,29.1870,-90.6093,2.15,14.18,1111122 
LUMCON,ioos:station:LUMCON:102:1,2015-11-03T19:00:00Z,29.1870,-90.6093,2.14,14.44,1111122 
LUMCON,ioos:station:LUMCON:102:1,2015-11-03T19:15:00Z,29.1870,-90.6093,2.15,15.94,1111122 
LUMCON,ioos:station:LUMCON:102:1,2015-11-03T19:30:00Z,29.1870,-90.6093,2.15,14.71,1111122 
LUMCON,ioos:station:LUMCON:102:1,2015-11-03T19:45:00Z,29.1870,-90.6093,2.15,15.31,1111122 
LUMCON,ioos:station:LUMCON:102:1,2015-11-03T20:00:00Z,29.1870,-90.6093,2.15,15.45,1111122 
LUMCON,ioos:station:LUMCON:102:1,2015-11-03T20:15:00Z,29.1870,-90.6093,2.16,14.6,1111122 
LUMCON,ioos:station:LUMCON:102:1,2015-11-03T20:30:00Z,29.1870,-90.6093,2.16,16.32,1111122 
LUMCON,ioos:station:LUMCON:102:1,2015-11-03T20:45:00Z,29.1870,-90.6093,2.16,15.7,1111122 
LUMCON,ioos:station:LUMCON:102:1,2015-11-03T21:00:00Z,29.1870,-90.6093,2.17,17.41,1111122 
LUMCON,ioos:station:LUMCON:102:1,2015-11-03T21:15:00Z,29.1870,-90.6093,2.18,16.11,1111122 
LUMCON,ioos:station:LUMCON:102:1,2015-11-03T21:30:00Z,29.1870,-90.6093,2.18,16.29,1111122 
LUMCON,ioos:station:LUMCON:102:1,2015-11-03T21:45:00Z,29.1870,-90.6093,2.2,16.28,1111122 
LUMCON,ioos:station:LUMCON:102:1,2015-11-03T22:00:00Z,29.1870,-90.6093,2.2,16.6,1111122 
LUMCON,ioos:station:LUMCON:102:1,2015-11-03T22:15:00Z,29.1870,-90.6093,2.22,16.44,1111122 
LUMCON,ioos:station:LUMCON:102:1,2015-11-03T22:30:00Z,29.1870,-90.6093,2.23,15.71,1111122 
LUMCON,ioos:station:LUMCON:102:1,2015-11-03T22:45:00Z,29.1870,-90.6093,2.24,16.11,1111122 
LUMCON,ioos:station:LUMCON:102:1,2015-11-03T23:00:00Z,29.1870,-90.6093,2.24,15.88,1111122 
LUMCON,ioos:station:LUMCON:102:1,2015-11-03T23:15:00Z,29.1870,-90.6093,2.25,15.94,1111122 
LUMCON,ioos:station:LUMCON:102:1,2015-11-03T23:30:00Z,29.1870,-90.6093,2.25,16.09,1111122 
LUMCON,ioos:station:LUMCON:102:1,2015-11-03T23:45:00Z,29.1870,-90.6093,2.27,17.36,1111122 
LUMCON,ioos:station:LUMCON:102:1,2015-11-04T05:00:00Z,29.1870,-90.6093,2.4,16.17,1111122 
LUMCON,ioos:station:LUMCON:102:1,2015-11-04T05:15:00Z,29.1870,-90.6093,2.4,16.5,1111122 
LUMCON,ioos:station:LUMCON:102:1,2015-11-04T05:30:00Z,29.1870,-90.6093,2.4,17.03,1111122 
LUMCON,ioos:station:LUMCON:102:1,2015-11-04T05:45:00Z,29.1870,-90.6093,2.41,16.66,1111122 
LUMCON,ioos:station:LUMCON:102:1,2015-11-04T06:00:00Z,29.1870,-90.6093,2.41,16.8,1111122 
LUMCON,ioos:station:LUMCON:102:1,2015-11-04T06:15:00Z,29.1870,-90.6093,2.41,16.27,1111122 
LUMCON,ioos:station:LUMCON:102:1,2015-11-04T06:30:00Z,29.1870,-90.6093,2.41,15.9,1111122 
LUMCON,ioos:station:LUMCON:102:1,2015-11-04T06:45:00Z,29.1870,-90.6093,2.39,16.7,1111122 
LUMCON,ioos:station:LUMCON:102:1,2015-11-04T07:00:00Z,29.1870,-90.6093,2.39,15.88,1111122 
LUMCON,ioos:station:LUMCON:102:1,2015-11-04T07:15:00Z,29.1870,-90.6093,2.39,16.1,1111122 
LUMCON,ioos:station:LUMCON:102:1,2015-11-04T07:30:00Z,29.1870,-90.6093,2.4,16.12,1111122 
LUMCON,ioos:station:LUMCON:102:1,2015-11-04T07:45:00Z,29.1870,-90.6093,2.39,16.06,1111122 
LUMCON,ioos:station:LUMCON:102:1,2015-11-04T08:00:00Z,29.1870,-90.6093,2.39,16.14,1111122 
LUMCON,ioos:station:LUMCON:102:1,2015-11-04T08:15:00Z,29.1870,-90.6093,2.38,16.07,1111122 
LUMCON,ioos:station:LUMCON:102:1,2015-11-04T08:30:00Z,29.1870,-90.6093,2.38,16.14,1111122 
LUMCON,ioos:station:LUMCON:102:1,2015-11-04T08:45:00Z,29.1870,-90.6093,2.38,16.28,1111122 
LUMCON,ioos:station:LUMCON:102:1,2015-11-04T09:00:00Z,29.1870,-90.6093,2.37,16.45,1111122 
LUMCON,ioos:station:LUMCON:102:1,2015-11-04T09:15:00Z,29.1870,-90.6093,2.37,16.45,1111122 
LUMCON,ioos:station:LUMCON:102:1,2015-11-04T09:30:00Z,29.1870,-90.6093,2.37,16.4,1111122 
LUMCON,ioos:station:LUMCON:102:1,2015-11-04T09:45:00Z,29.1870,-90.6093,2.37,16.27,1111122 
LUMCON,ioos:station:LUMCON:102:1,2015-11-04T10:00:00Z,29.1870,-90.6093,2.36,16.15,1111122 
LUMCON,ioos:station:LUMCON:102:1,2015-11-04T10:15:00Z,29.1870,-90.6093,2.35,16.01,1111122 
LUMCON,ioos:station:LUMCON:102:1,2015-11-04T10:30:00Z,29.1870,-90.6093,2.35,15.86,1111122 
LUMCON,ioos:station:LUMCON:102:1,2015-11-04T10:45:00Z,29.1870,-90.6093,2.34,16.51,1111122 
LUMCON,ioos:station:LUMCON:102:1,2015-11-04T11:00:00Z,29.1870,-90.6093,2.34,15.67,1111122 
LUMCON,ioos:station:LUMCON:102:1,2015-11-04T11:15:00Z,29.1870,-90.6093,2.33,15.76,1111122 
LUMCON,ioos:station:LUMCON:102:1,2015-11-04T11:30:00Z,29.1870,-90.6093,2.33,15.74,1111122 
LUMCON,ioos:station:LUMCON:102:1,2015-11-04T11:45:00Z,29.1870,-90.6093,2.33,16.1,1111122 
LUMCON,ioos:station:LUMCON:102:1,2015-11-04T12:00:00Z,29.1870,-90.6093,2.33,16.06,1111122 
LUMCON,ioos:station:LUMCON:102:1,2015-11-04T12:15:00Z,29.1870,-90.6093,2.33,16.21,1111122 
LUMCON,ioos:station:LUMCON:102:1,2015-11-04T12:30:00Z,29.1870,-90.6093,2.32,16.19,1111122 
LUMCON,ioos:station:LUMCON:102:1,2015-11-04T12:45:00Z,29.1870,-90.6093,2.31,16.27,1111122 
LUMCON,ioos:station:LUMCON:102:1,2015-11-04T13:00:00Z,29.1870,-90.6093,2.31,16.26,1111122 
LUMCON,ioos:station:LUMCON:102:1,2015-11-04T13:15:00Z,29.1870,-90.6093,2.29,16.45,1111122 
LUMCON,ioos:station:LUMCON:102:1,2015-11-04T13:30:00Z,29.1870,-90.6093,2.29,17.0,1111122 